Location: Unspecified
(48.2082°N, 0.0000°E)
Time: 01:26:32
(UTC+00:00)

Transit 4A - Pass Details

Date: 22 June 2019
Orbit: 866 x 978 km, 66.8° (Epoch: 14 October)

Event Time Altitude Azimuth Distance (km) Brightness Sun altitude
Rises 07:14:30 0° 179° (S) 3,595 11.0 29.1°
Reaches altitude 10° 07:17:16 10° 169° (S) 2,671 10.5 29.6°
Maximum altitude 07:22:39 31° 110° (ESE) 1,614 11.0 30.5°
Drops below altitude 10° 07:28:09 10° 50° (NE) 2,730 11.2 31.4°
Sets 07:31:00 0° 41° (NE) 3,687 11.6 31.9°
